Time,TemperatureF,DewpointF,PressureIn,WindDirection,WindDirectionDegrees,WindSpeedMPH,WindSpeedGustMPH,Humidity,HourlyPrecipIn,Conditions,Clouds,dailyrainin,SoftwareType,DateUTC
2013-10-18 00:02:00,56.4,-99.9,28.43,North,-999,-999.0,-999.0,-999,-99.99,,,-99.99,,2013-10-18 04:02:00,
2013-10-18 00:06:00,56.3,-99.9,28.43,North,-999,-999.0,-999.0,-999,-99.99,,,-99.99,,2013-10-18 04:06:00,
2013-10-18 00:12:00,56.3,-99.9,28.43,North,-999,-999.0,-999.0,-999,-99.99,,,-99.99,,2013-10-18 04:12:00,
2013-10-18 00:14:00,56.2,-99.9,28.43,North,-999,-999.0,-999.0,-999,-99.99,,,-99.99,,2013-10-18 04:14:00,
2013-10-18 00:20:00,56.0,-99.9,28.40,North,-999,-999.0,-999.0,-999,-99.99,,,-99.99,,2013-10-18 04:20:00,
2013-10-18 00:22:00,56.0,-99.9,28.43,North,-999,-999.0,-999.0,-999,-99.99,,,-99.99,,2013-10-18 04:22:00,
2013-10-18 00:28:00,55.9,-99.9,28.40,North,-999,-999.0,-999.0,-999,-99.99,,,-99.99,,2013-10-18 04:28:00,
2013-10-18 00:34:00,56.0,-99.9,28.43,North,-999,-999.0,-999.0,-999,-99.99,,,-99.99,,2013-10-18 04:34:00,
2013-10-18 00:40:00,56.0,-99.9,28.43,North,-999,-999.0,-999.0,-999,-99.99,,,-99.99,,2013-10-18 04:40:00,
2013-10-18 00:46:00,56.6,-99.9,28.40,North,-999,-999.0,-999.0,-999,-99.99,,,-99.99,,2013-10-18 04:46:00,
2013-10-18 00:52:00,58.1,-99.9,28.40,North,-999,-999.0,-999.0,-999,-99.99,,,-99.99,,2013-10-18 04:52:00,
2013-10-18 00:58:00,58.7,-99.9,28.40,North,-999,-999.0,-999.0,-999,-99.99,,,-99.99,,2013-10-18 04:58:00,
2013-10-18 01:04:00,59.1,-99.9,28.40,North,-999,-999.0,-999.0,-999,-99.99,,,-99.99,,2013-10-18 05:04:00,
2013-10-18 01:10:00,59.3,-99.9,28.40,North,-999,-999.0,-999.0,-999,-99.99,,,-99.99,,2013-10-18 05:10:00,
2013-10-18 01:16:00,59.4,-99.9,28.40,North,-999,-999.0,-999.0,-999,-99.99,,,-99.99,,2013-10-18 05:16:00,
2013-10-18 01:22:00,59.7,-99.9,28.40,North,-999,-999.0,-999.0,-999,-99.99,,,-99.99,,2013-10-18 05:22:00,
2013-10-18 01:28:00,59.7,-99.9,28.40,North,-999,-999.0,-999.0,-999,-99.99,,,-99.99,,2013-10-18 05:28:00,
2013-10-18 01:34:00,59.8,-99.9,28.40,North,-999,-999.0,-999.0,-999,-99.99,,,-99.99,,2013-10-18 05:34:00,
2013-10-18 01:40:00,60.0,-99.9,28.40,North,-999,-999.0,-999.0,-999,-99.99,,,-99.99,,2013-10-18 05:40:00,
2013-10-18 01:46:00,60.2,-99.9,28.36,North,-999,-999.0,-999.0,-999,-99.99,,,-99.99,,2013-10-18 05:46:00,
2013-10-18 01:52:00,60.4,-99.9,28.40,North,-999,-999.0,-999.0,-999,-99.99,,,-99.99,,2013-10-18 05:52:00,
2013-10-18 01:58:00,60.3,-99.9,28.40,North,-999,-999.0,-999.0,-999,-99.99,,,-99.99,,2013-10-18 05:58:00,
2013-10-18 02:04:00,60.3,-99.9,28.36,North,-999,-999.0,-999.0,-999,-99.99,,,-99.99,,2013-10-18 06:04:00,
2013-10-18 02:10:00,60.5,-99.9,28.36,North,-999,-999.0,-999.0,-999,-99.99,,,-99.99,,2013-10-18 06:10:00,
2013-10-18 02:16:00,60.5,-99.9,28.40,North,-999,-999.0,-999.0,-999,-99.99,,,-99.99,,2013-10-18 06:16:00,
2013-10-18 02:22:00,60.3,-99.9,28.40,North,-999,-999.0,-999.0,-999,-99.99,,,-99.99,,2013-10-18 06:22:00,
2013-10-18 02:28:00,59.9,-99.9,28.40,North,-999,-999.0,-999.0,-999,-99.99,,,-99.99,,2013-10-18 06:28:00,
2013-10-18 02:34:00,59.2,-99.9,28.43,North,-999,-999.0,-999.0,-999,-99.99,,,-99.99,,2013-10-18 06:34:00,
2013-10-18 02:40:00,58.7,-99.9,28.43,North,-999,-999.0,-999.0,-999,-99.99,,,-99.99,,2013-10-18 06:40:00,
2013-10-18 02:46:00,58.1,-99.9,28.43,North,-999,-999.0,-999.0,-999,-99.99,,,-99.99,,2013-10-18 06:46:00,
2013-10-18 02:52:00,57.7,-99.9,28.43,North,-999,-999.0,-999.0,-999,-99.99,,,-99.99,,2013-10-18 06:52:00,
2013-10-18 02:58:00,57.6,-99.9,28.43,North,-999,-999.0,-999.0,-999,-99.99,,,-99.99,,2013-10-18 06:58:00,
2013-10-18 03:04:00,56.9,-99.9,28.43,North,-999,-999.0,-999.0,-999,-99.99,,,-99.99,,2013-10-18 07:04:00,
2013-10-18 03:10:00,56.3,-99.9,28.43,North,-999,-999.0,-999.0,-999,-99.99,,,-99.99,,2013-10-18 07:10:00,
2013-10-18 03:16:00,56.1,-99.9,28.46,North,-999,-999.0,-999.0,-999,-99.99,,,-99.99,,2013-10-18 07:16:00,
2013-10-18 03:22:00,55.7,-99.9,28.43,North,-999,-999.0,-999.0,-999,-99.99,,,-99.99,,2013-10-18 07:22:00,
2013-10-18 03:28:00,55.5,-99.9,28.46,North,-999,-999.0,-999.0,-999,-99.99,,,-99.99,,2013-10-18 07:28:00,
2013-10-18 03:34:00,55.3,-99.9,28.46,North,-999,-999.0,-999.0,-999,-99.99,,,-99.99,,2013-10-18 07:34:00,
2013-10-18 03:40:00,55.1,-99.9,28.46,North,-999,-999.0,-999.0,-999,-99.99,,,-99.99,,2013-10-18 07:40:00,
2013-10-18 03:46:00,54.7,-99.9,28.46,North,-999,-999.0,-999.0,-999,-99.99,,,-99.99,,2013-10-18 07:46:00,
2013-10-18 03:52:00,54.1,-99.9,28.46,North,-999,-999.0,-999.0,-999,-99.99,,,-99.99,,2013-10-18 07:52:00,
2013-10-18 03:58:00,54.0,-99.9,28.46,North,-999,-999.0,-999.0,-999,-99.99,,,-99.99,,2013-10-18 07:58:00,
2013-10-18 04:04:00,53.9,-99.9,28.46,North,-999,-999.0,-999.0,-999,-99.99,,,-99.99,,2013-10-18 08:04:00,
2013-10-18 04:10:00,53.7,-99.9,28.46,North,-999,-999.0,-999.0,-999,-99.99,,,-99.99,,2013-10-18 08:10:00,
2013-10-18 04:16:00,53.8,-99.9,28.46,North,-999,-999.0,-999.0,-999,-99.99,,,-99.99,,2013-10-18 08:16:00,
2013-10-18 04:22:00,53.8,-99.9,28.46,North,-999,-999.0,-999.0,-999,-99.99,,,-99.99,,2013-10-18 08:22:00,
2013-10-18 04:28:00,53.7,-99.9,28.46,North,-999,-999.0,-999.0,-999,-99.99,,,-99.99,,2013-10-18 08:28:00,
2013-10-18 04:34:00,53.7,-99.9,28.49,North,-999,-999.0,-999.0,-999,-99.99,,,-99.99,,2013-10-18 08:34:00,
2013-10-18 04:40:00,53.7,-99.9,28.49,North,-999,-999.0,-999.0,-999,-99.99,,,-99.99,,2013-10-18 08:40:00,
2013-10-18 04:46:00,53.5,-99.9,28.49,North,-999,-999.0,-999.0,-999,-99.99,,,-99.99,,2013-10-18 08:46:00,
2013-10-18 04:52:00,53.5,-99.9,28.49,North,-999,-999.0,-999.0,-999,-99.99,,,-99.99,,2013-10-18 08:52:00,
2013-10-18 04:58:00,53.6,-99.9,28.49,North,-999,-999.0,-999.0,-999,-99.99,,,-99.99,,2013-10-18 08:58:00,
2013-10-18 05:04:00,53.5,-99.9,28.49,North,-999,-999.0,-999.0,-999,-99.99,,,-99.99,,2013-10-18 09:04:00,
2013-10-18 05:10:00,53.4,-99.9,28.49,North,-999,-999.0,-999.0,-999,-99.99,,,-99.99,,2013-10-18 09:10:00,
2013-10-18 05:16:00,53.4,-99.9,28.49,North,-999,-999.0,-999.0,-999,-99.99,,,-99.99,,2013-10-18 09:16:00,
2013-10-18 05:22:00,53.5,-99.9,28.52,North,-999,-999.0,-999.0,-999,-99.99,,,-99.99,,2013-10-18 09:22:00,
2013-10-18 05:28:00,53.4,-99.9,28.52,North,-999,-999.0,-999.0,-999,-99.99,,,-99.99,,2013-10-18 09:28:00,
2013-10-18 05:34:00,53.3,-99.9,28.49,North,-999,-999.0,-999.0,-999,-99.99,,,-99.99,,2013-10-18 09:34:00,
2013-10-18 05:40:00,53.3,-99.9,28.49,North,-999,-999.0,-999.0,-999,-99.99,,,-99.99,,2013-10-18 09:40:00,
2013-10-18 05:46:00,53.4,-99.9,28.49,North,-999,-999.0,-999.0,-999,-99.99,,,-99.99,,2013-10-18 09:46:00,
2013-10-18 05:52:00,53.1,-99.9,28.52,North,-999,-999.0,-999.0,-999,-99.99,,,-99.99,,2013-10-18 09:52:00,
2013-10-18 05:58:00,52.9,-99.9,28.52,North,-999,-999.0,-999.0,-999,-99.99,,,-99.99,,2013-10-18 09:58:00,
2013-10-18 06:04:00,53.0,-99.9,28.52,North,-999,-999.0,-999.0,-999,-99.99,,,-99.99,,2013-10-18 10:04:00,
2013-10-18 06:10:00,53.0,-99.9,28.52,North,-999,-999.0,-999.0,-999,-99.99,,,-99.99,,2013-10-18 10:10:00,
2013-10-18 06:16:00,52.8,-99.9,28.52,North,-999,-999.0,-999.0,-999,-99.99,,,-99.99,,2013-10-18 10:16:00,
2013-10-18 06:22:00,52.7,-99.9,28.49,North,-999,-999.0,-999.0,-999,-99.99,,,-99.99,,2013-10-18 10:22:00,
2013-10-18 06:28:00,52.6,-99.9,28.52,North,-999,-999.0,-999.0,-999,-99.99,,,-99.99,,2013-10-18 10:28:00,
2013-10-18 06:34:00,52.7,-99.9,28.52,North,-999,-999.0,-999.0,-999,-99.99,,,-99.99,,2013-10-18 10:34:00,
2013-10-18 06:40:00,52.8,-99.9,28.52,North,-999,-999.0,-999.0,-999,-99.99,,,-99.99,,2013-10-18 10:40:00,
2013-10-18 06:46:00,52.6,-99.9,28.52,North,-999,-999.0,-999.0,-999,-99.99,,,-99.99,,2013-10-18 10:46:00,
2013-10-18 06:52:00,52.5,-99.9,28.52,North,-999,-999.0,-999.0,-999,-99.99,,,-99.99,,2013-10-18 10:52:00,
2013-10-18 06:58:00,52.4,-99.9,28.52,North,-999,-999.0,-999.0,-999,-99.99,,,-99.99,,2013-10-18 10:58:00,
2013-10-18 07:04:00,52.3,-99.9,28.52,North,-999,-999.0,-999.0,-999,-99.99,,,-99.99,,2013-10-18 11:04:00,
2013-10-18 07:10:00,52.3,-99.9,28.52,North,-999,-999.0,-999.0,-999,-99.99,,,-99.99,,2013-10-18 11:10:00,
2013-10-18 07:16:00,52.4,-99.9,28.52,North,-999,-999.0,-999.0,-999,-99.99,,,-99.99,,2013-10-18 11:16:00,
2013-10-18 07:22:00,52.3,-99.9,28.52,North,-999,-999.0,-999.0,-999,-99.99,,,-99.99,,2013-10-18 11:22:00,
2013-10-18 07:28:00,52.0,-99.9,28.52,North,-999,-999.0,-999.0,-999,-99.99,,,-99.99,,2013-10-18 11:28:00,
2013-10-18 07:34:00,51.8,-99.9,28.56,North,-999,-999.0,-999.0,-999,-99.99,,,-99.99,,2013-10-18 11:34:00,
2013-10-18 07:40:00,52.0,-99.9,28.56,North,-999,-999.0,-999.0,-999,-99.99,,,-99.99,,2013-10-18 11:40:00,
2013-10-18 07:46:00,52.0,-99.9,28.56,North,-999,-999.0,-999.0,-999,-99.99,,,-99.99,,2013-10-18 11:46:00,
2013-10-18 07:52:00,51.9,-99.9,28.59,North,-999,-999.0,-999.0,-999,-99.99,,,-99.99,,2013-10-18 11:52:00,
2013-10-18 07:58:00,51.7,-99.9,28.56,North,-999,-999.0,-999.0,-999,-99.99,,,-99.99,,2013-10-18 11:58:00,
2013-10-18 08:04:00,51.7,-99.9,28.56,North,-999,-999.0,-999.0,-999,-99.99,,,-99.99,,2013-10-18 12:04:00,
2013-10-18 08:10:00,51.8,-99.9,28.56,North,-999,-999.0,-999.0,-999,-99.99,,,-99.99,,2013-10-18 12:10:00,
2013-10-18 08:16:00,51.7,-99.9,28.56,North,-999,-999.0,-999.0,-999,-99.99,,,-99.99,,2013-10-18 12:16:00,
2013-10-18 08:22:00,51.6,-99.9,28.56,North,-999,-999.0,-999.0,-999,-99.99,,,-99.99,,2013-10-18 12:22:00,
2013-10-18 08:28:00,51.6,-99.9,28.56,North,-999,-999.0,-999.0,-999,-99.99,,,-99.99,,2013-10-18 12:28:00,
2013-10-18 08:34:00,51.6,-99.9,28.59,North,-999,-999.0,-999.0,-999,-99.99,,,-99.99,,2013-10-18 12:34:00,
2013-10-18 08:40:00,51.8,-99.9,28.59,North,-999,-999.0,-999.0,-999,-99.99,,,-99.99,,2013-10-18 12:40:00,
2013-10-18 08:46:00,52.1,-99.9,28.59,North,-999,-999.0,-999.0,-999,-99.99,,,-99.99,,2013-10-18 12:46:00,
2013-10-18 08:52:00,52.3,-99.9,28.59,North,-999,-999.0,-999.0,-999,-99.99,,,-99.99,,2013-10-18 12:52:00,
2013-10-18 08:58:00,52.3,-99.9,28.59,North,-999,-999.0,-999.0,-999,-99.99,,,-99.99,,2013-10-18 12:58:00,
2013-10-18 09:04:00,52.5,-99.9,28.59,North,-999,-999.0,-999.0,-999,-99.99,,,-99.99,,2013-10-18 13:04:00,
2013-10-18 09:10:00,52.7,-99.9,28.59,North,-999,-999.0,-999.0,-999,-99.99,,,-99.99,,2013-10-18 13:10:00,
2013-10-18 09:16:00,52.9,-99.9,28.62,North,-999,-999.0,-999.0,-999,-99.99,,,-99.99,,2013-10-18 13:16:00,
2013-10-18 09:22:00,53.3,-99.9,28.59,North,-999,-999.0,-999.0,-999,-99.99,,,-99.99,,2013-10-18 13:22:00,
2013-10-18 09:28:00,53.8,-99.9,28.59,North,-999,-999.0,-999.0,-999,-99.99,,,-99.99,,2013-10-18 13:28:00,
2013-10-18 09:34:00,54.1,-99.9,28.62,North,-999,-999.0,-999.0,-999,-99.99,,,-99.99,,2013-10-18 13:34:00,
2013-10-18 09:40:00,54.3,-99.9,28.59,North,-999,-999.0,-999.0,-999,-99.99,,,-99.99,,2013-10-18 13:40:00,
2013-10-18 09:46:00,54.2,-99.9,28.59,North,-999,-999.0,-999.0,-999,-99.99,,,-99.99,,2013-10-18 13:46:00,
2013-10-18 09:52:00,54.1,-99.9,28.59,North,-999,-999.0,-999.0,-999,-99.99,,,-99.99,,2013-10-18 13:52:00,
2013-10-18 09:58:00,54.4,-99.9,28.59,North,-999,-999.0,-999.0,-999,-99.99,,,-99.99,,2013-10-18 13:58:00,
2013-10-18 10:04:00,54.5,-99.9,28.59,North,-999,-999.0,-999.0,-999,-99.99,,,-99.99,,2013-10-18 14:04:00,
2013-10-18 10:10:00,54.5,-99.9,28.59,North,-999,-999.0,-999.0,-999,-99.99,,,-99.99,,2013-10-18 14:10:00,
2013-10-18 10:16:00,54.9,-99.9,28.59,North,-999,-999.0,-999.0,-999,-99.99,,,-99.99,,2013-10-18 14:16:00,
2013-10-18 10:22:00,55.4,-99.9,28.59,North,-999,-999.0,-999.0,-999,-99.99,,,-99.99,,2013-10-18 14:22:00,
2013-10-18 10:28:00,55.8,-99.9,28.59,North,-999,-999.0,-999.0,-999,-99.99,,,-99.99,,2013-10-18 14:28:00,
2013-10-18 10:34:00,56.2,-99.9,28.59,North,-999,-999.0,-999.0,-999,-99.99,,,-99.99,,2013-10-18 14:34:00,
2013-10-18 10:40:00,57.1,-99.9,28.59,North,-999,-999.0,-999.0,-999,-99.99,,,-99.99,,2013-10-18 14:40:00,
2013-10-18 10:46:00,57.1,-99.9,28.59,North,-999,-999.0,-999.0,-999,-99.99,,,-99.99,,2013-10-18 14:46:00,
2013-10-18 10:52:00,57.1,-99.9,28.62,North,-999,-999.0,-999.0,-999,-99.99,,,-99.99,,2013-10-18 14:52:00,
2013-10-18 10:58:00,56.8,-99.9,28.62,North,-999,-999.0,-999.0,-999,-99.99,,,-99.99,,2013-10-18 14:58:00,
2013-10-18 11:04:00,56.6,-99.9,28.62,North,-999,-999.0,-999.0,-999,-99.99,,,-99.99,,2013-10-18 15:04:00,
2013-10-18 11:10:00,56.2,-99.9,28.59,North,-999,-999.0,-999.0,-999,-99.99,,,-99.99,,2013-10-18 15:10:00,
2013-10-18 11:16:00,56.1,-99.9,28.62,North,-999,-999.0,-999.0,-999,-99.99,,,-99.99,,2013-10-18 15:16:00,
2013-10-18 11:22:00,56.2,-99.9,28.59,North,-999,-999.0,-999.0,-999,-99.99,,,-99.99,,2013-10-18 15:22:00,
2013-10-18 11:28:00,55.9,-99.9,28.59,North,-999,-999.0,-999.0,-999,-99.99,,,-99.99,,2013-10-18 15:28:00,
2013-10-18 11:34:00,55.8,-99.9,28.59,North,-999,-999.0,-999.0,-999,-99.99,,,-99.99,,2013-10-18 15:34:00,
2013-10-18 11:40:00,56.2,-99.9,28.59,North,-999,-999.0,-999.0,-999,-99.99,,,-99.99,,2013-10-18 15:40:00,
2013-10-18 11:46:00,57.8,-99.9,28.59,North,-999,-999.0,-999.0,-999,-99.99,,,-99.99,,2013-10-18 15:46:00,
2013-10-18 11:52:00,58.4,-99.9,28.62,North,-999,-999.0,-999.0,-999,-99.99,,,-99.99,,2013-10-18 15:52:00,
2013-10-18 11:58:00,57.7,-99.9,28.62,North,-999,-999.0,-999.0,-999,-99.99,,,-99.99,,2013-10-18 15:58:00,
2013-10-18 12:04:00,57.1,-99.9,28.62,North,-999,-999.0,-999.0,-999,-99.99,,,-99.99,,2013-10-18 16:04:00,
2013-10-18 12:10:00,57.0,-99.9,28.62,North,-999,-999.0,-999.0,-999,-99.99,,,-99.99,,2013-10-18 16:10:00,
2013-10-18 12:16:00,57.3,-99.9,28.62,North,-999,-999.0,-999.0,-999,-99.99,,,-99.99,,2013-10-18 16:16:00,
2013-10-18 12:22:00,57.6,-99.9,28.62,North,-999,-999.0,-999.0,-999,-99.99,,,-99.99,,2013-10-18 16:22:00,
2013-10-18 12:28:00,57.5,-99.9,28.62,North,-999,-999.0,-999.0,-999,-99.99,,,-99.99,,2013-10-18 16:28:00,
2013-10-18 12:34:00,57.1,-99.9,28.62,North,-999,-999.0,-999.0,-999,-99.99,,,-99.99,,2013-10-18 16:34:00,
2013-10-18 12:40:00,56.9,-99.9,28.62,North,-999,-999.0,-999.0,-999,-99.99,,,-99.99,,2013-10-18 16:40:00,
2013-10-18 12:46:00,57.1,-99.9,28.62,North,-999,-999.0,-999.0,-999,-99.99,,,-99.99,,2013-10-18 16:46:00,
2013-10-18 12:52:00,57.3,-99.9,28.62,North,-999,-999.0,-999.0,-999,-99.99,,,-99.99,,2013-10-18 16:52:00,
2013-10-18 12:58:00,57.5,-99.9,28.59,North,-999,-999.0,-999.0,-999,-99.99,,,-99.99,,2013-10-18 16:58:00,
2013-10-18 13:04:00,59.2,-99.9,28.62,North,-999,-999.0,-999.0,-999,-99.99,,,-99.99,,2013-10-18 17:04:00,
2013-10-18 13:10:00,59.8,-99.9,28.59,North,-999,-999.0,-999.0,-999,-99.99,,,-99.99,,2013-10-18 17:10:00,
2013-10-18 13:16:00,59.3,-99.9,28.62,North,-999,-999.0,-999.0,-999,-99.99,,,-99.99,,2013-10-18 17:16:00,
2013-10-18 13:22:00,59.1,-99.9,28.62,North,-999,-999.0,-999.0,-999,-99.99,,,-99.99,,2013-10-18 17:22:00,
2013-10-18 13:28:00,59.1,-99.9,28.59,North,-999,-999.0,-999.0,-999,-99.99,,,-99.99,,2013-10-18 17:28:00,
2013-10-18 13:34:00,59.0,-99.9,28.62,North,-999,-999.0,-999.0,-999,-99.99,,,-99.99,,2013-10-18 17:34:00,
2013-10-18 13:40:00,58.6,-99.9,28.59,North,-999,-999.0,-999.0,-999,-99.99,,,-99.99,,2013-10-18 17:40:00,
2013-10-18 13:46:00,58.2,-99.9,28.62,North,-999,-999.0,-999.0,-999,-99.99,,,-99.99,,2013-10-18 17:46:00,
2013-10-18 13:52:00,58.0,-99.9,28.62,North,-999,-999.0,-999.0,-999,-99.99,,,-99.99,,2013-10-18 17:52:00,
2013-10-18 13:58:00,57.9,-99.9,28.59,North,-999,-999.0,-999.0,-999,-99.99,,,-99.99,,2013-10-18 17:58:00,
2013-10-18 14:04:00,57.6,-99.9,28.62,North,-999,-999.0,-999.0,-999,-99.99,,,-99.99,,2013-10-18 18:04:00,
2013-10-18 14:10:00,57.5,-99.9,28.59,North,-999,-999.0,-999.0,-999,-99.99,,,-99.99,,2013-10-18 18:10:00,
2013-10-18 14:16:00,57.8,-99.9,28.62,North,-999,-999.0,-999.0,-999,-99.99,,,-99.99,,2013-10-18 18:16:00,
2013-10-18 14:22:00,58.0,-99.9,28.62,North,-999,-999.0,-999.0,-999,-99.99,,,-99.99,,2013-10-18 18:22:00,
2013-10-18 14:28:00,58.6,-99.9,28.62,North,-999,-999.0,-999.0,-999,-99.99,,,-99.99,,2013-10-18 18:28:00,
2013-10-18 14:34:00,59.0,-99.9,28.62,North,-999,-999.0,-999.0,-999,-99.99,,,-99.99,,2013-10-18 18:34:00,
2013-10-18 14:40:00,59.2,-99.9,28.62,North,-999,-999.0,-999.0,-999,-99.99,,,-99.99,,2013-10-18 18:40:00,
2013-10-18 14:46:00,59.2,-99.9,28.62,North,-999,-999.0,-999.0,-999,-99.99,,,-99.99,,2013-10-18 18:46:00,
2013-10-18 14:52:00,58.9,-99.9,28.62,North,-999,-999.0,-999.0,-999,-99.99,,,-99.99,,2013-10-18 18:52:00,
2013-10-18 14:58:00,58.6,-99.9,28.59,North,-999,-999.0,-999.0,-999,-99.99,,,-99.99,,2013-10-18 18:58:00,
2013-10-18 15:04:00,59.6,-99.9,28.62,North,-999,-999.0,-999.0,-999,-99.99,,,-99.99,,2013-10-18 19:04:00,
2013-10-18 15:10:00,60.1,-99.9,28.62,North,-999,-999.0,-999.0,-999,-99.99,,,-99.99,,2013-10-18 19:10:00,
2013-10-18 15:16:00,59.6,-99.9,28.62,North,-999,-999.0,-999.0,-999,-99.99,,,-99.99,,2013-10-18 19:16:00,
2013-10-18 15:22:00,59.4,-99.9,28.62,North,-999,-999.0,-999.0,-999,-99.99,,,-99.99,,2013-10-18 19:22:00,
2013-10-18 15:28:00,58.4,-99.9,28.62,North,-999,-999.0,-999.0,-999,-99.99,,,-99.99,,2013-10-18 19:28:00,
2013-10-18 15:34:00,58.1,-99.9,28.62,North,-999,-999.0,-999.0,-999,-99.99,,,-99.99,,2013-10-18 19:34:00,
2013-10-18 15:40:00,58.4,-99.9,28.62,North,-999,-999.0,-999.0,-999,-99.99,,,-99.99,,2013-10-18 19:40:00,
2013-10-18 15:46:00,58.8,-99.9,28.62,North,-999,-999.0,-999.0,-999,-99.99,,,-99.99,,2013-10-18 19:46:00,
2013-10-18 15:52:00,58.9,-99.9,28.62,North,-999,-999.0,-999.0,-999,-99.99,,,-99.99,,2013-10-18 19:52:00,
2013-10-18 15:58:00,58.8,-99.9,28.62,North,-999,-999.0,-999.0,-999,-99.99,,,-99.99,,2013-10-18 19:58:00,
2013-10-18 16:04:00,58.9,-99.9,28.62,North,-999,-999.0,-999.0,-999,-99.99,,,-99.99,,2013-10-18 20:04:00,
2013-10-18 16:10:00,59.1,-99.9,28.62,North,-999,-999.0,-999.0,-999,-99.99,,,-99.99,,2013-10-18 20:10:00,
2013-10-18 16:16:00,59.1,-99.9,28.62,North,-999,-999.0,-999.0,-999,-99.99,,,-99.99,,2013-10-18 20:16:00,
2013-10-18 16:22:00,58.7,-99.9,28.62,North,-999,-999.0,-999.0,-999,-99.99,,,-99.99,,2013-10-18 20:22:00,
2013-10-18 16:28:00,58.4,-99.9,28.62,North,-999,-999.0,-999.0,-999,-99.99,,,-99.99,,2013-10-18 20:28:00,
2013-10-18 16:34:00,58.1,-99.9,28.62,North,-999,-999.0,-999.0,-999,-99.99,,,-99.99,,2013-10-18 20:34:00,
2013-10-18 16:40:00,57.9,-99.9,28.62,North,-999,-999.0,-999.0,-999,-99.99,,,-99.99,,2013-10-18 20:40:00,
2013-10-18 16:46:00,57.6,-99.9,28.65,North,-999,-999.0,-999.0,-999,-99.99,,,-99.99,,2013-10-18 20:46:00,
2013-10-18 16:52:00,57.4,-99.9,28.62,North,-999,-999.0,-999.0,-999,-99.99,,,-99.99,,2013-10-18 20:52:00,
2013-10-18 16:58:00,57.4,-99.9,28.62,North,-999,-999.0,-999.0,-999,-99.99,,,-99.99,,2013-10-18 20:58:00,
2013-10-18 17:04:00,57.2,-99.9,28.62,North,-999,-999.0,-999.0,-999,-99.99,,,-99.99,,2013-10-18 21:04:00,
2013-10-18 17:10:00,57.0,-99.9,28.62,North,-999,-999.0,-999.0,-999,-99.99,,,-99.99,,2013-10-18 21:10:00,
2013-10-18 17:16:00,56.5,-99.9,28.62,North,-999,-999.0,-999.0,-999,-99.99,,,-99.99,,2013-10-18 21:16:00,
2013-10-18 17:22:00,56.2,-99.9,28.62,North,-999,-999.0,-999.0,-999,-99.99,,,-99.99,,2013-10-18 21:22:00,
2013-10-18 17:28:00,56.0,-99.9,28.65,North,-999,-999.0,-999.0,-999,-99.99,,,-99.99,,2013-10-18 21:28:00,
2013-10-18 17:34:00,55.7,-99.9,28.62,North,-999,-999.0,-999.0,-999,-99.99,,,-99.99,,2013-10-18 21:34:00,
2013-10-18 17:40:00,55.4,-99.9,28.65,North,-999,-999.0,-999.0,-999,-99.99,,,-99.99,,2013-10-18 21:40:00,
2013-10-18 17:46:00,55.2,-99.9,28.65,North,-999,-999.0,-999.0,-999,-99.99,,,-99.99,,2013-10-18 21:46:00,
2013-10-18 17:52:00,54.8,-99.9,28.65,North,-999,-999.0,-999.0,-999,-99.99,,,-99.99,,2013-10-18 21:52:00,
2013-10-18 17:58:00,54.5,-99.9,28.65,North,-999,-999.0,-999.0,-999,-99.99,,,-99.99,,2013-10-18 21:58:00,
2013-10-18 18:04:00,53.9,-99.9,28.68,North,-999,-999.0,-999.0,-999,-99.99,,,-99.99,,2013-10-18 22:04:00,
2013-10-18 18:10:00,53.6,-99.9,28.68,North,-999,-999.0,-999.0,-999,-99.99,,,-99.99,,2013-10-18 22:10:00,
2013-10-18 18:16:00,53.3,-99.9,28.65,North,-999,-999.0,-999.0,-999,-99.99,,,-99.99,,2013-10-18 22:16:00,
2013-10-18 18:22:00,52.8,-99.9,28.65,North,-999,-999.0,-999.0,-999,-99.99,,,-99.99,,2013-10-18 22:22:00,
2013-10-18 18:28:00,52.5,-99.9,28.65,North,-999,-999.0,-999.0,-999,-99.99,,,-99.99,,2013-10-18 22:28:00,
2013-10-18 18:34:00,52.3,-99.9,28.68,North,-999,-999.0,-999.0,-999,-99.99,,,-99.99,,2013-10-18 22:34:00,
2013-10-18 18:40:00,51.9,-99.9,28.68,North,-999,-999.0,-999.0,-999,-99.99,,,-99.99,,2013-10-18 22:40:00,
2013-10-18 18:46:00,51.4,-99.9,28.65,North,-999,-999.0,-999.0,-999,-99.99,,,-99.99,,2013-10-18 22:46:00,
2013-10-18 18:52:00,51.3,-99.9,28.65,North,-999,-999.0,-999.0,-999,-99.99,,,-99.99,,2013-10-18 22:52:00,
2013-10-18 18:58:00,51.1,-99.9,28.65,North,-999,-999.0,-999.0,-999,-99.99,,,-99.99,,2013-10-18 22:58:00,
2013-10-18 19:04:00,50.9,-99.9,28.65,North,-999,-999.0,-999.0,-999,-99.99,,,-99.99,,2013-10-18 23:04:00,
2013-10-18 19:10:00,50.6,-99.9,28.65,North,-999,-999.0,-999.0,-999,-99.99,,,-99.99,,2013-10-18 23:10:00,
2013-10-18 19:16:00,50.3,-99.9,28.68,North,-999,-999.0,-999.0,-999,-99.99,,,-99.99,,2013-10-18 23:16:00,
2013-10-18 19:22:00,50.0,-99.9,28.68,North,-999,-999.0,-999.0,-999,-99.99,,,-99.99,,2013-10-18 23:22:00,
2013-10-18 19:28:00,49.8,-99.9,28.68,North,-999,-999.0,-999.0,-999,-99.99,,,-99.99,,2013-10-18 23:28:00,
2013-10-18 19:34:00,49.4,-99.9,28.68,North,-999,-999.0,-999.0,-999,-99.99,,,-99.99,,2013-10-18 23:34:00,
2013-10-18 19:40:00,49.0,-99.9,28.72,North,-999,-999.0,-999.0,-999,-99.99,,,-99.99,,2013-10-18 23:40:00,
2013-10-18 19:46:00,48.8,-99.9,28.68,North,-999,-999.0,-999.0,-999,-99.99,,,-99.99,,2013-10-18 23:46:00,
2013-10-18 19:52:00,48.5,-99.9,28.68,North,-999,-999.0,-999.0,-999,-99.99,,,-99.99,,2013-10-18 23:52:00,
2013-10-18 19:58:00,48.1,-99.9,28.68,North,-999,-999.0,-999.0,-999,-99.99,,,-99.99,,2013-10-18 23:58:00,
2013-10-18 20:04:00,47.6,-99.9,28.68,North,-999,-999.0,-999.0,-999,-99.99,,,-99.99,,2013-10-19 00:04:00,
2013-10-18 20:10:00,47.3,-99.9,28.68,North,-999,-999.0,-999.0,-999,-99.99,,,-99.99,,2013-10-19 00:10:00,
2013-10-18 20:16:00,46.9,-99.9,28.68,North,-999,-999.0,-999.0,-999,-99.99,,,-99.99,,2013-10-19 00:16:00,
2013-10-18 20:22:00,46.4,-99.9,28.68,North,-999,-999.0,-999.0,-999,-99.99,,,-99.99,,2013-10-19 00:22:00,
2013-10-18 20:28:00,46.1,-99.9,28.68,North,-999,-999.0,-999.0,-999,-99.99,,,-99.99,,2013-10-19 00:28:00,
2013-10-18 20:34:00,45.8,-99.9,28.68,North,-999,-999.0,-999.0,-999,-99.99,,,-99.99,,2013-10-19 00:34:00,
2013-10-18 20:40:00,45.4,-99.9,28.68,North,-999,-999.0,-999.0,-999,-99.99,,,-99.99,,2013-10-19 00:40:00,
2013-10-18 20:46:00,45.1,-99.9,28.72,North,-999,-999.0,-999.0,-999,-99.99,,,-99.99,,2013-10-19 00:46:00,
2013-10-18 20:52:00,44.9,-99.9,28.68,North,-999,-999.0,-999.0,-999,-99.99,,,-99.99,,2013-10-19 00:52:00,
2013-10-18 20:58:00,44.7,-99.9,28.72,North,-999,-999.0,-999.0,-999,-99.99,,,-99.99,,2013-10-19 00:58:00,
2013-10-18 21:04:00,44.4,-99.9,28.72,North,-999,-999.0,-999.0,-999,-99.99,,,-99.99,,2013-10-19 01:04:00,
2013-10-18 21:10:00,44.2,-99.9,28.72,North,-999,-999.0,-999.0,-999,-99.99,,,-99.99,,2013-10-19 01:10:00,
2013-10-18 21:16:00,43.7,-99.9,28.72,North,-999,-999.0,-999.0,-999,-99.99,,,-99.99,,2013-10-19 01:16:00,
2013-10-18 21:22:00,43.2,-99.9,28.72,North,-999,-999.0,-999.0,-999,-99.99,,,-99.99,,2013-10-19 01:22:00,
2013-10-18 21:28:00,43.1,-99.9,28.72,North,-999,-999.0,-999.0,-999,-99.99,,,-99.99,,2013-10-19 01:28:00,
2013-10-18 21:34:00,43.0,-99.9,28.72,North,-999,-999.0,-999.0,-999,-99.99,,,-99.99,,2013-10-19 01:34:00,
2013-10-18 21:40:00,42.8,-99.9,28.72,North,-999,-999.0,-999.0,-999,-99.99,,,-99.99,,2013-10-19 01:40:00,
2013-10-18 21:46:00,42.6,-99.9,28.68,North,-999,-999.0,-999.0,-999,-99.99,,,-99.99,,2013-10-19 01:46:00,
2013-10-18 21:52:00,42.6,-99.9,28.72,North,-999,-999.0,-999.0,-999,-99.99,,,-99.99,,2013-10-19 01:52:00,
2013-10-18 21:58:00,42.3,-99.9,28.72,North,-999,-999.0,-999.0,-999,-99.99,,,-99.99,,2013-10-19 01:58:00,
2013-10-18 22:04:00,42.1,-99.9,28.72,North,-999,-999.0,-999.0,-999,-99.99,,,-99.99,,2013-10-19 02:04:00,
2013-10-18 22:10:00,41.9,-99.9,28.72,North,-999,-999.0,-999.0,-999,-99.99,,,-99.99,,2013-10-19 02:10:00,
2013-10-18 22:16:00,41.7,-99.9,28.72,North,-999,-999.0,-999.0,-999,-99.99,,,-99.99,,2013-10-19 02:16:00,
2013-10-18 22:22:00,41.6,-99.9,28.72,North,-999,-999.0,-999.0,-999,-99.99,,,-99.99,,2013-10-19 02:22:00,
2013-10-18 22:28:00,41.2,-99.9,28.72,North,-999,-999.0,-999.0,-999,-99.99,,,-99.99,,2013-10-19 02:28:00,
2013-10-18 22:34:00,41.0,-99.9,28.72,North,-999,-999.0,-999.0,-999,-99.99,,,-99.99,,2013-10-19 02:34:00,
2013-10-18 22:40:00,41.0,-99.9,28.72,North,-999,-999.0,-999.0,-999,-99.99,,,-99.99,,2013-10-19 02:40:00,
2013-10-18 22:46:00,40.9,-99.9,28.72,North,-999,-999.0,-999.0,-999,-99.99,,,-99.99,,2013-10-19 02:46:00,
2013-10-18 22:52:00,40.7,-99.9,28.72,North,-999,-999.0,-999.0,-999,-99.99,,,-99.99,,2013-10-19 02:52:00,
2013-10-18 22:58:00,40.7,-99.9,28.72,North,-999,-999.0,-999.0,-999,-99.99,,,-99.99,,2013-10-19 02:58:00,
2013-10-18 23:04:00,40.5,-99.9,28.72,North,-999,-999.0,-999.0,-999,-99.99,,,-99.99,,2013-10-19 03:04:00,
2013-10-18 23:10:00,40.3,-99.9,28.72,North,-999,-999.0,-999.0,-999,-99.99,,,-99.99,,2013-10-19 03:10:00,
2013-10-18 23:16:00,40.3,-99.9,28.75,North,-999,-999.0,-999.0,-999,-99.99,,,-99.99,,2013-10-19 03:16:00,
2013-10-18 23:22:00,40.2,-99.9,28.72,North,-999,-999.0,-999.0,-999,-99.99,,,-99.99,,2013-10-19 03:22:00,
2013-10-18 23:28:00,39.9,-99.9,28.72,North,-999,-999.0,-999.0,-999,-99.99,,,-99.99,,2013-10-19 03:28:00,
2013-10-18 23:34:00,40.0,-99.9,28.72,North,-999,-999.0,-999.0,-999,-99.99,,,-99.99,,2013-10-19 03:34:00,
2013-10-18 23:40:00,40.0,-99.9,28.72,North,-999,-999.0,-999.0,-999,-99.99,,,-99.99,,2013-10-19 03:40:00,
2013-10-18 23:46:00,39.9,-99.9,28.72,North,-999,-999.0,-999.0,-999,-99.99,,,-99.99,,2013-10-19 03:46:00,
2013-10-18 23:52:00,39.8,-99.9,28.72,North,-999,-999.0,-999.0,-999,-99.99,,,-99.99,,2013-10-19 03:52:00,
2013-10-18 23:58:00,39.7,-99.9,28.72,North,-999,-999.0,-999.0,-999,-99.99,,,-99.99,,2013-10-19 03:58:00,